Kamloops,

7:11 AM PDT on October 23, 2017 (GMT -0700)
Kamloops

Weather History for CYKA - October, 2012

Change the Weather History Date:

Wednesday, October 31, 2012

  Actual Average Record
Temperature  
Mean Temperature 42 °F -  
Max Temperature 45 °F 42 °F 59 °F (2010)
Min Temperature 40 °F 28 °F 17 °F (2002)
Degree Days  
Heating Degree Days 22    
Moisture  
Dew Point 39 °F    
Average Humidity 86    
Maximum Humidity 93    
Minimum Humidity 75    
Precipitation  
Precipitation 0.16 in 0.03 in - ()
Sea Level Pressure  
Sea Level Pressure 29.82 in    
Wind  
Wind Speed 5 mph ()    
Max Wind Speed 14 mph    
Max Gust Speed -    
Visibility 16.5 miles    
Events Rain    
Averages and records for this station are not official NWS values.
T = Trace of Precipitation, MM = Missing Value Source: Averaged Metar Reports

Daily Weather History Graph

Daily Weather History Graph

Search for Another Location

Airport or City:

Trip Planner

Search our weather history database for the weather conditions in past years. The results will help you decide how hot, cold, wet, or windy it might be!

Date:

Astronomy

Oct. 31, 2012 Rise Set
Actual Time 7:52 AM PDT 5:37 PM PDT
Civil Twilight 7:18 AM PDT 6:11 PM PDT
Nautical Twilight 6:39 AM PDT 6:50 PM PDT
Astronomical Twilight 6:01 AM PDT 7:28 PM PDT
Moon 6:39 PM PDT (10/31) 9:50 AM PDT (10/31)
Length of Visible Light 10h 53m
Length of Day
9h 44m
Waning Gibbous, 97% of the Moon is Illuminated
Oct 31
Waning Gibbous
Nov 6
Last Quarter
Nov 13
New
Nov 20
First Quarter
Nov 28
Full

Hourly Weather History & Observations

Time (PDT) Temp. Windchill Dew Point Humidity Pressure Visibility Wind Dir Wind Speed Gust Speed Precip Events Conditions
12:00 AM 42.8 °F 39.3 °F 37.4 °F 81% 29.96 in 20.0 mi West 5.8 mph - N/A Rain Light Rain Showers
1:00 AM 41.0 °F - 39.2 °F 93% 29.97 in 15.0 mi West 2.3 mph - N/A Rain Light Rain Showers
2:00 AM 41.0 °F - 37.4 °F 87% 29.95 in 15.0 mi Calm Calm - N/A Rain Light Rain Showers
3:00 AM 41.0 °F - 39.2 °F 93% 29.94 in 15.0 mi Calm Calm - N/A Rain Light Rain Showers
4:00 AM 41.0 °F - 39.2 °F 93% 29.91 in 15.0 mi Calm Calm - N/A Rain Light Rain Showers
4:16 AM - - - N/A% - 20.0 mi Calm Calm - N/A   Overcast
4:30 AM - - - N/A% - 15.0 mi Calm Calm - N/A Rain Light Rain Showers
5:00 AM 41 °F - 39 °F 89% 29.90 in 15 mi Calm Calm - - Rain Light Rain Showers
5:00 AM 41.0 °F - 39.2 °F 93% 29.90 in 15.0 mi Calm Calm - N/A Rain Light Rain Showers
6:00 AM 41.0 °F - 39.2 °F 93% 29.88 in 15.0 mi SE 2.3 mph - N/A Rain Light Rain Showers
7:00 AM 41.0 °F 39.0 °F 39.2 °F 93% 29.87 in 15.0 mi ESE 3.5 mph - N/A Rain Light Rain Showers
7:34 AM - - - N/A% - 15.0 mi East 3.5 mph - N/A   Overcast
8:00 AM 41.0 °F 38.0 °F 39.2 °F 93% 29.86 in 15.0 mi East 4.6 mph - N/A   Overcast
8:34 AM - - - N/A% - 15.0 mi ESE 4.6 mph - N/A   Overcast
9:00 AM 41.0 °F 38.0 °F 39.2 °F 93% 29.86 in 15.0 mi East 4.6 mph - N/A   Overcast
10:00 AM 42.8 °F 38.6 °F 39.2 °F 87% 29.85 in 15.0 mi SE 6.9 mph - N/A   Overcast
11:00 AM 42 °F - 38 °F 82% 29.84 in 19 mi SE 8.1 mph - -   Partly Cloudy
11:00 AM 42.8 °F 38.0 °F 39.2 °F 87% 29.84 in 20.0 mi SE 8.1 mph - N/A   Overcast
11:58 AM - - - N/A% - 20.0 mi SE 9.2 mph - N/A Rain Light Rain Showers
12:00 PM 42.8 °F 37.5 °F 39.2 °F 87% 29.83 in 15.0 mi SE 9.2 mph - N/A Rain Light Rain Showers
1:00 PM 42.8 °F 37.5 °F 39.2 °F 87% 29.81 in 15.0 mi SE 9.2 mph - N/A Rain Light Rain Showers
2:00 PM 44.6 °F 39.2 °F 39.2 °F 81% 29.78 in 15.0 mi ESE 10.4 mph - N/A Rain Light Rain Showers
2:50 PM - - - N/A% - 25.0 mi SE 9.2 mph - N/A   Overcast
3:00 PM 44.6 °F 40.7 °F 39.2 °F 81% 29.76 in 25.0 mi SSE 6.9 mph - N/A   Overcast
4:00 PM 44.6 °F 39.7 °F 39.2 °F 81% 29.75 in 25.0 mi SE 9.2 mph - N/A   Overcast
5:00 PM 45 °F - 40 °F 75% 29.74 in 28 mi SE 9.2 mph - -   Partly Cloudy
5:00 PM 44.6 °F 39.7 °F 39.2 °F 81% 29.74 in 40.0 mi SE 9.2 mph - N/A   Overcast
6:00 PM 44.6 °F 40.2 °F 39.2 °F 81% 29.73 in 30.0 mi SE 8.1 mph - N/A   Overcast
7:00 PM 44.6 °F 39.7 °F 39.2 °F 81% 29.73 in 25.0 mi SE 9.2 mph - N/A   Overcast
8:00 PM 44.6 °F 40.2 °F 39.2 °F 81% 29.72 in 40.0 mi SE 8.1 mph - N/A   Overcast
9:00 PM 44.6 °F 39.7 °F 39.2 °F 81% 29.73 in 30.0 mi ESE 9.2 mph - N/A   Overcast
9:25 PM - - - N/A% - 30.0 mi East 4.6 mph - N/A   Overcast
9:55 PM - - - N/A% - 25.0 mi East 11.5 mph - N/A Rain Light Rain Showers
10:00 PM 44.6 °F 38.4 °F 41.0 °F 87% 29.73 in 25.0 mi East 12.7 mph - N/A Rain Light Rain Showers
10:20 PM - - - N/A% - 25.0 mi ESE 13.8 mph - N/A   Overcast
10:52 PM - - - N/A% - 20.0 mi East 11.5 mph - N/A   Overcast
11:00 PM 44 °F - 40 °F 83% 29.74 in 19 mi ESE 9.2 mph - - Rain Light Rain Showers
11:00 PM 44.6 °F 39.2 °F 41.0 °F 87% 29.74 in 20.0 mi ESE 10.4 mph - N/A   Overcast